Location: Songkhla
(7.2000°N, 100.6000°E)
Time: 21:04:44
(UTC+07:00)

NOSS 0 Rocket - Pass Details

Date: 16 April 2026
Orbit: 935 x 953 km, 70.0° (Epoch: 20 May)

Event Time Altitude Azimuth Distance (km) Brightness Sun altitude
Rises 18:54:43 0° 187° (S) 3,611 6.9 -7.8°
Reaches altitude 10° 18:57:18 10° 182° (S) 2,668 6.2 -8.4°
Maximum altitude 19:03:20 54° 106° (ESE) 1,135 4.0 -9.9°
Drops below altitude 10° 19:09:21 10° 29° (NNE) 2,669 6.1 -11.4°
Sets 19:11:56 0° 25° (NNE) 3,614 6.8 -12.0°
